Regional Weather Roundup
Issued by NWS

Home | Current Version | Previous Version | Graphics & Text | Print | Product List | Glossary On
Versions: 1 2 3 4 5 6 7 8 9 10 11 12 13 14 15 16 17 18 19 20 21 22 23 24 25 26 27 28 29 30 31 32 33 34 35 36 37 38 39 40 41 42 43 44 45 46 47 48 49 50
000
ASUS45 KCYS 281710
RWRWY

WYOMING REGIONAL WEATHER ROUNDUP
NATIONAL WEATHER SERVICE CHEYENNE WY
1100 AM MDT FRI AUG 28 2015

NOTE:  "FAIR" INDICATES FEW OR NO CLOUDS BELOW 12,000 FEET
WITH NO SIGNIFICANT WEATHER AND/OR OBSTRUCTIONS TO VISIBILITY.

WYZ001-281800-
YELLOWSTONE NATIONAL PARK

CITY           SKY/WX    TMP DP  RH WIND       PRES   REMARKS
LK YELLOWSTONE   N/A     56  47  71 VRB5      30.45R
W YELLOWSTONE  NOT AVBL

$$
WYZ002>013-054>058-071-098>099-281800-
NORTHERN WYOMING

CITY           SKY/WX    TMP DP  RH WIND       PRES   REMARKS
JACKSON        FAIR      63  46  55 SW5       30.37S
CODY           FAIR      72  45  37 CALM      30.22S
GREYBULL       FAIR      68  52  56 SE6       30.18F HAZE
WORLAND        FAIR      66  53  63 W5        30.21S HAZE
SHERIDAN       FAIR      84  43  23 VRB3      30.14S
BUFFALO        FAIR      81  39  22 N10       30.22R
GILLETTE       FAIR      79  44  28 NW14      30.16R
HULETT         FAIR      73  48  40 SW7       30.16R
NEWCASTLE      FAIR      77  43  29 NW10      30.15S

$$
WYZ014>020-022>026-101>103-281800-
CENTRAL WYOMING

CITY           SKY/WX    TMP DP  RH WIND       PRES   REMARKS
BIG PINEY      FAIR      67  41  38 VRB5      30.41S
PINEDALE       FAIR      66  41  39 CALM      30.42S
DUBOIS         FAIR      66  43  42 CALM      30.37S
LANDER         FAIR      69  49  48 E3        30.28S
RIVERTON       FAIR      66  54  65 SE3       30.29S
CASPER         FAIR      72  44  36 SW12      30.26S
DOUGLAS        FAIR      77  44  30 NW14      30.23R

$$
WYZ021-027>030-104>119-281800-
SOUTHERN WYOMING

CITY           SKY/WX    TMP DP  RH WIND       PRES   REMARKS
EVANSTON       FAIR      73  39  29 S6        30.41S
KEMMERER       FAIR      73  37  27 W7        30.42S
FORT BRIDGER   SUNNY     73  39  29 NW3       30.43S
ROCK SPRINGS   FAIR      69  43  38 SW10      30.39S
DIXON          FAIR      67  47  48 CALM      30.42S
RAWLINS        FAIR      69  42  37 W12G21    30.37F
SARATOGA       FAIR      66  46  48 W5        30.40S
LARAMIE        FAIR      65  47  52 NE8       30.39R
CHEYENNE       PTSUNNY   70  44  39 N16       30.31R
TORRINGTON     FAIR      78  48  34 W15       30.15R
PINE BLUFFS    FAIR      77  41  27 NW18G24   30.23R

$$



USA.gov is the U.S. government's official web portal to all federal, state and local government web resources and services.